Volver al catálogo

CZ-3B DEB

LostHEO
NORAD 40183·DEBRIS·🇨🇳 China

Lanzado Dec 19, 2011 desde Xichang Satellite Launch Center

Loading…

Próximos Pases (próximas 24 horas)

TLE

ObsoletoSource: Space-Track

Época: Feb 1, 2026, 19:13 UTC

1 40183U 11077G   26032.80131131 -.00000068  00000-0  10453-2 0  9993
2 40183  21.9440 318.9345 7530349 244.3696  23.8199  1.85754364 78758

Sigue CZ-3B DEB en tiempo real con AllMySat

Download on the App Store